,,,PA_Meas_PMT16A,,PR_Meas_QMR101_102,,RH_Meas_QMH101,,SR_Meas_QMS101,,TA_Meas_QMH101,,GenWind,,GenWind,
date,time,status,PA,status,PR,status,RH,status,SR,status,TA,status,DirAvg,status,SpdAvg,
2011-04-21, 00:00:04,VALID,1001.24,VALID,0,VALID,91.6623,VALID,0,VALID,24.1696,VALID,91,VALID,0.641797,
2011-04-21, 00:01:04,VALID,1001.25,VALID,0,VALID,91.6851,VALID,0,VALID,24.1482,VALID,91,VALID,0.657812,
2011-04-21, 00:02:04,VALID,1001.2,VALID,0,VALID,91.7385,VALID,0,VALID,24.15,VALID,91,VALID,0.511719,
2011-04-21, 00:03:04,VALID,1001.21,VALID,0,VALID,91.7614,VALID,0,VALID,24.15,VALID,95,VALID,0.600781,
2011-04-21, 00:04:04,VALID,1001.2,VALID,0,VALID,91.7996,VALID,0,VALID,24.1287,VALID,95,VALID,0.509375,
2011-04-21, 00:05:04,VALID,1001.16,VALID,0,VALID,91.8377,VALID,0,VALID,24.15,VALID,95,VALID,0.53125,
2011-04-21, 00:06:04,VALID,1001.14,VALID,0,VALID,91.8683,VALID,0,VALID,24.15,VALID,99,VALID,0.614062,
2011-04-21, 00:07:04,VALID,1001.1,VALID,0,VALID,91.9064,VALID,0,VALID,24.1482,VALID,99,VALID,0.612891,
2011-04-21, 00:08:04,VALID,1001.12,VALID,0,VALID,91.914,VALID,0,VALID,24.1696,VALID,107,VALID,0.834766,
2011-04-21, 00:09:04,VALID,1001.08,VALID,0,VALID,91.9217,VALID,0,VALID,24.15,VALID,113,VALID,0.614062,
2011-04-21, 00:10:04,VALID,1001.08,VALID,0,VALID,91.8988,VALID,0,VALID,24.1287,VALID,118,VALID,0.556641,
2011-04-21, 00:11:04,VALID,1001.08,VALID,0,VALID,91.9064,VALID,0,VALID,24.1305,VALID,118,VALID,0.572266,
2011-04-21, 00:12:04,VALID,1001.05,VALID,0,VALID,91.9064,VALID,0,VALID,24.1305,VALID,125,VALID,0.605859,
2011-04-21, 00:13:04,VALID,1001.06,VALID,0,VALID,91.8911,VALID,0,VALID,24.15,VALID,154,VALID,0.932031,
2011-04-21, 00:14:04,VALID,1001.03,VALID,0,VALID,91.7996,VALID,0,VALID,24.111,VALID,145,VALID,0.844531,
2011-04-21, 00:15:04,VALID,1001.01,VALID,0,VALID,91.708,VALID,0,VALID,24.15,VALID,143,VALID,0.895312,
2011-04-21, 00:16:04,VALID,1000.98,VALID,0,VALID,91.6088,VALID,0,VALID,24.15,VALID,143,VALID,0.688672,
2011-04-21, 00:17:04,VALID,1000.97,VALID,0,VALID,91.4791,VALID,0,VALID,24.15,VALID,143,VALID,0.460938,
2011-04-21, 00:18:05,VALID,1000.94,VALID,0,VALID,91.3571,VALID,0,VALID,24.15,VALID,143,VALID,0.352734,
2011-04-21, 00:19:05,VALID,1000.93,VALID,0,VALID,91.2655,VALID,0,VALID,24.15,VALID,143,VALID,0.206641,
2011-04-21, 00:20:05,VALID,1000.9,VALID,0,VALID,91.2045,VALID,0,VALID,24.15,VALID,143,VALID,0.175391,
2011-04-21, 00:21:05,VALID,1000.93,VALID,0,VALID,91.1816,VALID,0,VALID,24.1287,VALID,143,VALID,0.159375,
2011-04-21, 00:22:05,VALID,1000.92,VALID,0,VALID,91.1663,VALID,0,VALID,24.15,VALID,143,VALID,0.24375,
2011-04-21, 00:23:05,VALID,1000.9,VALID,0,VALID,91.1663,VALID,0,VALID,24.15,VALID,143,VALID,0.308594,
2011-04-21, 00:24:05,VALID,1000.9,VALID,0,VALID,91.1816,VALID,0,VALID,24.1287,VALID,143,VALID,0.437109,
2011-04-21, 00:25:05,VALID,1000.91,VALID,0,VALID,91.174,VALID,0,VALID,24.1287,VALID,143,VALID,0.273438,
2011-04-21, 00:26:05,VALID,1000.88,VALID,0,VALID,91.174,VALID,0,VALID,24.1696,VALID,143,VALID,0.366797,
2011-04-21, 00:27:05,VALID,1000.86,VALID,0,VALID,91.1358,VALID,0,VALID,24.1482,VALID,143,VALID,0.246484,
2011-04-21, 00:28:05,VALID,1000.84,VALID,0,VALID,91.1053,VALID,0,VALID,24.15,VALID,143,VALID,0.344922,
2011-04-21, 00:29:05,VALID,1000.87,VALID,0,VALID,91.0977,VALID,0,VALID,24.1482,VALID,143,VALID,0.458594,
2011-04-21, 00:30:05,VALID,1000.83,VALID,0,VALID,91.0671,VALID,0,VALID,24.1287,VALID,100,VALID,0.644922,
2011-04-21, 00:31:05,VALID,1000.87,VALID,0,VALID,90.9985,VALID,0,VALID,24.1287,VALID,100,VALID,0.81875,
2011-04-21, 00:32:05,VALID,1000.88,VALID,0,VALID,90.9374,VALID,0,VALID,24.1305,VALID,102,VALID,0.882031,
2011-04-21, 00:33:05,VALID,1000.89,VALID,0,VALID,90.9603,VALID,0,VALID,24.1287,VALID,102,VALID,0.696875,
2011-04-21, 00:34:05,VALID,1000.88,VALID,0,VALID,90.9909,VALID,0,VALID,24.1092,VALID,102,VALID,0.70625,
2011-04-21, 00:35:05,VALID,1000.9,VALID,0,VALID,91.0595,VALID,0,VALID,24.1092,VALID,91,VALID,0.744922,
2011-04-21, 00:36:05,VALID,1000.88,VALID,0,VALID,91.0748,VALID,0,VALID,24.0897,VALID,65,VALID,1.07656,
2011-04-21, 00:37:05,VALID,1000.87,VALID,0,VALID,91.0977,VALID,0,VALID,24.0701,VALID,65,VALID,0.919922,
2011-04-21, 00:38:05,VALID,1000.85,VALID,0,VALID,91.1053,VALID,0,VALID,24.0915,VALID,65,VALID,0.767578,
2011-04-21, 00:39:05,VALID,1000.83,VALID,0,VALID,91.1206,VALID,0,VALID,24.0701,VALID,65,VALID,0.807031,
2011-04-21, 00:40:05,VALID,1000.83,VALID,0,VALID,91.1358,VALID,0,VALID,24.072,VALID,63,VALID,0.935938,
2011-04-21, 00:41:05,VALID,1000.83,VALID,0,VALID,91.1206,VALID,0,VALID,24.0506,VALID,63,VALID,0.546484,
2011-04-21, 00:42:05,VALID,1000.81,VALID,0,VALID,91.1358,VALID,0,VALID,24.0506,VALID,47,VALID,0.795313,
2011-04-21, 00:43:05,VALID,1000.82,VALID,0,VALID,91.1434,VALID,0,VALID,24.0311,VALID,42,VALID,0.587891,
2011-04-21, 00:44:05,VALID,1000.8,VALID,0,VALID,91.1968,VALID,0,VALID,24.0116,VALID,59,VALID,0.523828,
2011-04-21, 00:45:05,VALID,1000.81,VALID,0,VALID,91.2579,VALID,0,VALID,24.0329,VALID,56,VALID,0.59375,
2011-04-21, 00:46:05,VALID,1000.85,VALID,0,VALID,91.3266,VALID,0,VALID,24.0134,VALID,56,VALID,0.564844,
2011-04-21, 00:47:05,VALID,1000.84,VALID,0,VALID,91.38,VALID,0,VALID,23.9726,VALID,56,VALID,0.353125,
2011-04-21, 00:48:05,VALID,1000.85,VALID,0,VALID,91.4257,VALID,0,VALID,23.9744,VALID,56,VALID,0.287109,
2011-04-21, 00:49:05,VALID,1000.86,VALID,0,VALID,91.4791,VALID,0,VALID,23.9549,VALID,56,VALID,0.332422,
2011-04-21, 00:50:05,VALID,1000.84,VALID,0,VALID,91.5249,VALID,0,VALID,23.9354,VALID,56,VALID,0.173828,
2011-04-21, 00:51:05,VALID,1000.84,VALID,0,VALID,91.5249,VALID,0,VALID,23.9159,VALID,56,VALID,0.121875,
2011-04-21, 00:52:05,VALID,1000.82,VALID,0,VALID,91.5631,VALID,0,VALID,23.9159,VALID,56,VALID,0,
2011-04-21, 00:53:05,VALID,1000.81,VALID,0,VALID,91.586,VALID,0,VALID,23.8768,VALID,56,VALID,0,
2011-04-21, 00:54:05,VALID,1000.8,VALID,0,VALID,91.6165,VALID,0,VALID,23.8768,VALID,56,VALID,0,
2011-04-21, 00:55:05,VALID,1000.78,VALID,0,VALID,91.647,VALID,0,VALID,23.8573,VALID,56,VALID,0,
2011-04-21, 00:56:05,VALID,1000.74,VALID,0,VALID,91.7004,VALID,0,VALID,23.8573,VALID,56,VALID,0,
2011-04-21, 00:57:05,VALID,1000.76,VALID,0,VALID,91.7614,VALID,0,VALID,23.8768,VALID,56,VALID,0,
2011-04-21, 00:58:05,VALID,1000.75,VALID,0,VALID,91.792,VALID,0,VALID,23.8768,VALID,56,VALID,0,
2011-04-21, 00:59:05,VALID,1000.74,VALID,0,VALID,91.8454,VALID,0,VALID,23.8963,VALID,56,VALID,0,
2011-04-21, 01:00:05,VALID,1000.77,VALID,0,VALID,91.8835,VALID,0,VALID,23.8963,VALID,56,VALID,0,
2011-04-21, 01:01:05,VALID,1000.76,VALID,0,VALID,91.8835,VALID,0,VALID,23.9159,VALID,56,VALID,0.028125,
2011-04-21, 01:02:05,VALID,1000.78,VALID,0,VALID,91.9064,VALID,0,VALID,23.9159,VALID,56,VALID,0.491797,
2011-04-21, 01:03:05,VALID,1000.77,VALID,0,VALID,91.914,VALID,0,VALID,23.9159,VALID,101,VALID,0.717188,
2011-04-21, 01:04:05,VALID,1000.74,VALID,0,VALID,91.914,VALID,0,VALID,23.9354,VALID,101,VALID,0.724609,
2011-04-21, 01:05:05,VALID,1000.76,VALID,0,VALID,91.8988,VALID,0,VALID,23.914,VALID,101,VALID,0.737109,
2011-04-21, 01:06:05,VALID,1000.72,VALID,0,VALID,91.9293,VALID,0,VALID,23.9549,VALID,101,VALID,0.600391,
2011-04-21, 01:07:05,VALID,1000.71,VALID,0,VALID,91.9064,VALID,0,VALID,23.9744,VALID,131,VALID,0.916406,
2011-04-21, 01:08:05,VALID,1000.71,VALID,0,VALID,91.8377,VALID,0,VALID,23.9744,VALID,146,VALID,0.678906,
2011-04-21, 01:09:05,VALID,1000.67,VALID,0,VALID,91.7538,VALID,0,VALID,23.9939,VALID,146,VALID,0.545703,
2011-04-21, 01:10:05,VALID,1000.71,VALID,0,VALID,91.6928,VALID,0,VALID,23.9939,VALID,144,VALID,0.808984,
2011-04-21, 01:11:05,VALID,1000.68,VALID,0,VALID,91.6088,VALID,0,VALID,23.9939,VALID,144,VALID,0.385547,
2011-04-21, 01:12:05,VALID,1000.7,VALID,0,VALID,91.502,VALID,0,VALID,23.9939,VALID,137,VALID,0.769531,
2011-04-21, 01:13:05,VALID,1000.68,VALID,0,VALID,91.4028,VALID,0,VALID,23.9744,VALID,127,VALID,1.06602,
2011-04-21, 01:14:05,VALID,1000.67,VALID,0,VALID,91.3342,VALID,0,VALID,23.9939,VALID,125,VALID,0.659766,
2011-04-21, 01:15:05,VALID,1000.67,VALID,0,VALID,91.2884,VALID,0,VALID,23.9549,VALID,130,VALID,0.622656,
2011-04-21, 01:16:05,VALID,1000.65,VALID,0,VALID,91.2808,VALID,0,VALID,23.9549,VALID,125,VALID,0.695313,
2011-04-21, 01:17:05,VALID,1000.65,VALID,0,VALID,91.2808,VALID,0,VALID,23.9354,VALID,143,VALID,1.0625,
2011-04-21, 01:18:05,VALID,1000.61,VALID,0,VALID,91.3189,VALID,0,VALID,23.9354,VALID,143,VALID,0.642187,
2011-04-21, 01:19:05,VALID,1000.58,VALID,0,VALID,91.3113,VALID,0,VALID,23.9354,VALID,143,VALID,0.55,
2011-04-21, 01:20:05,VALID,1000.55,VALID,0,VALID,91.3342,VALID,0,VALID,23.9354,VALID,143,VALID,0.600391,
2011-04-21, 01:21:05,VALID,1000.58,VALID,0,VALID,91.3494,VALID,0,VALID,23.9354,VALID,140,VALID,0.578516,
2011-04-21, 01:22:05,VALID,1000.56,VALID,0,VALID,91.3113,VALID,0,VALID,23.9354,VALID,133,VALID,0.664844,
2011-04-21, 01:23:05,VALID,1000.55,VALID,0,VALID,91.2655,VALID,0,VALID,23.9354,VALID,133,VALID,0.709766,
2011-04-21, 01:24:05,VALID,1000.53,VALID,0,VALID,91.1816,VALID,0,VALID,23.9354,VALID,150,VALID,0.897656,
2011-04-21, 01:25:05,VALID,1000.51,VALID,0,VALID,91.0824,VALID,0,VALID,23.9549,VALID,157,VALID,0.603125,
2011-04-21, 01:26:05,VALID,1000.5,VALID,0,VALID,90.9909,VALID,0,VALID,23.9744,VALID,154,VALID,0.476172,
2011-04-21, 01:27:05,VALID,1000.46,VALID,0,VALID,90.8993,VALID,0,VALID,23.9939,VALID,154,VALID,0.635938,
2011-04-21, 01:28:05,VALID,1000.47,VALID,0,VALID,90.7849,VALID,0,VALID,24.0134,VALID,155,VALID,0.644922,
2011-04-21, 01:29:05,VALID,1000.45,VALID,0,VALID,90.7314,VALID,0,VALID,24.0134,VALID,155,VALID,0.348828,
2011-04-21, 01:30:05,VALID,1000.47,VALID,0,VALID,90.678,VALID,0,VALID,24.0134,VALID,155,VALID,0.310156,
2011-04-21, 01:31:05,VALID,1000.46,VALID,0,VALID,90.678,VALID,0,VALID,23.9939,VALID,155,VALID,0.271094,
2011-04-21, 01:32:05,VALID,1000.47,VALID,0,VALID,90.6551,VALID,0,VALID,23.9939,VALID,155,VALID,0,
2011-04-21, 01:33:05,VALID,1000.45,VALID,0,VALID,90.617,VALID,0,VALID,23.9744,VALID,146,VALID,0.421094,
2011-04-21, 01:34:05,VALID,1000.47,VALID,0,VALID,90.5788,VALID,0,VALID,23.9744,VALID,133,VALID,0.362109,
2011-04-21, 01:35:05,VALID,1000.48,VALID,0,VALID,90.5788,VALID,0,VALID,23.9549,VALID,132,VALID,0.623047,
2011-04-21, 01:36:05,VALID,1000.46,VALID,0,VALID,90.5712,VALID,0,VALID,23.9549,VALID,132,VALID,0.290625,
2011-04-21, 01:37:05,VALID,1000.48,VALID,0,VALID,90.5941,VALID,0,VALID,23.9531,VALID,132,VALID,0.651953,
2011-04-21, 01:38:05,VALID,1000.51,VALID,0,VALID,90.5788,VALID,0,VALID,23.9549,VALID,131,VALID,0.756641,
2011-04-21, 01:39:05,VALID,1000.49,VALID,0,VALID,90.5483,VALID,0,VALID,23.9744,VALID,131,VALID,0.704687,
2011-04-21, 01:40:05,VALID,1000.47,VALID,0,VALID,90.4949,VALID,0,VALID,23.9549,VALID,131,VALID,0.517969,
2011-04-21, 01:41:05,VALID,1000.48,VALID,0,VALID,90.4644,VALID,0,VALID,23.9336,VALID,131,VALID,0.647656,
2011-04-21, 01:42:05,VALID,1000.45,VALID,0,VALID,90.4797,VALID,0,VALID,23.9549,VALID,131,VALID,0.455469,
2011-04-21, 01:43:05,VALID,1000.44,VALID,0,VALID,90.5026,VALID,0,VALID,23.9549,VALID,131,VALID,0.272266,
2011-04-21, 01:44:05,VALID,1000.41,VALID,0,VALID,90.5102,VALID,0,VALID,23.9336,VALID,131,VALID,0.450781,
2011-04-21, 01:45:05,VALID,1000.43,VALID,0,VALID,90.4949,VALID,0,VALID,23.9354,VALID,131,VALID,0,
2011-04-21, 01:46:05,VALID,1000.39,VALID,0,VALID,90.5026,VALID,0,VALID,23.9159,VALID,131,VALID,0,
2011-04-21, 01:47:05,VALID,1000.38,VALID,0,VALID,90.5483,VALID,0,VALID,23.9159,VALID,131,VALID,0,
2011-04-21, 01:48:05,VALID,1000.37,VALID,0,VALID,90.5788,VALID,0,VALID,23.8963,VALID,131,VALID,0,
2011-04-21, 01:49:05,VALID,1000.37,VALID,0,VALID,90.6704,VALID,0,VALID,23.8963,VALID,131,VALID,0,
2011-04-21, 01:50:05,VALID,1000.37,VALID,0,VALID,90.7696,VALID,0,VALID,23.875,VALID,131,VALID,0,
2011-04-21, 01:51:05,VALID,1000.38,VALID,0,VALID,90.8383,VALID,0,VALID,23.8963,VALID,131,VALID,0,
2011-04-21, 01:52:05,VALID,1000.35,VALID,0,VALID,90.8993,VALID,0,VALID,23.8963,VALID,131,VALID,0,
2011-04-21, 01:53:05,VALID,1000.33,VALID,0,VALID,90.9374,VALID,0,VALID,23.9159,VALID,131,VALID,0,
2011-04-21, 01:54:05,VALID,1000.32,VALID,0,VALID,90.9985,VALID,0,VALID,23.8945,VALID,131,VALID,0,
2011-04-21, 01:55:05,VALID,1000.32,VALID,0,VALID,91.029,VALID,0,VALID,23.9159,VALID,131,VALID,0,
2011-04-21, 01:56:05,VALID,1000.35,VALID,0,VALID,91.0137,VALID,0,VALID,23.8963,VALID,131,VALID,0,
2011-04-21, 01:57:05,VALID,1000.34,VALID,0,VALID,91.029,VALID,0,VALID,23.8982,VALID,131,VALID,0,
2011-04-21, 01:58:05,VALID,1000.32,VALID,0,VALID,91.0366,VALID,0,VALID,23.8963,VALID,131,VALID,0,
2011-04-21, 01:59:05,VALID,1000.32,VALID,0,VALID,91.0748,VALID,0,VALID,23.8768,VALID,131,VALID,0,
2011-04-21, 02:00:05,VALID,1000.34,VALID,0,VALID,91.1206,VALID,0,VALID,23.836,VALID,131,VALID,0,
2011-04-21, 02:01:05,VALID,1000.37,VALID,0,VALID,91.1434,VALID,0,VALID,23.8591,VALID,131,VALID,0,
2011-04-21, 02:02:05,VALID,1000.37,VALID,0,VALID,91.1511,VALID,0,VALID,23.8378,VALID,131,VALID,0,
2011-04-21, 02:03:05,VALID,1000.35,VALID,0,VALID,91.1816,VALID,0,VALID,23.7988,VALID,131,VALID,0,
2011-04-21, 02:04:05,VALID,1000.34,VALID,0,VALID,91.1892,VALID,0,VALID,23.7988,VALID,131,VALID,0,
2011-04-21, 02:05:05,VALID,1000.35,VALID,0,VALID,91.235,VALID,0,VALID,23.7793,VALID,131,VALID,0,
2011-04-21, 02:06:05,VALID,1000.34,VALID,0,VALID,91.2579,VALID,0,VALID,23.7597,VALID,131,VALID,0,
2011-04-21, 02:07:05,VALID,1000.28,VALID,0,VALID,91.2731,VALID,0,VALID,23.7402,VALID,131,VALID,0,
2011-04-21, 02:08:05,VALID,1000.3,VALID,0,VALID,91.3037,VALID,0,VALID,23.7402,VALID,131,VALID,0,
2011-04-21, 02:09:05,VALID,1000.27,VALID,0,VALID,91.3723,VALID,0,VALID,23.7597,VALID,131,VALID,0,
2011-04-21, 02:10:05,VALID,1000.26,VALID,0,VALID,91.4334,VALID,0,VALID,23.7597,VALID,131,VALID,0,
2011-04-21, 02:11:05,VALID,1000.25,VALID,0,VALID,91.4486,VALID,0,VALID,23.7597,VALID,139,VALID,0,
2011-04-21, 02:12:05,VALID,1000.23,VALID,0,VALID,91.441,VALID,0,VALID,23.7793,VALID,136,VALID,0.572266,
2011-04-21, 02:13:05,VALID,1000.24,VALID,0,VALID,91.3571,VALID,0,VALID,23.7988,VALID,124,VALID,0.609375,
2011-04-21, 02:14:05,VALID,1000.25,VALID,0,VALID,91.3037,VALID,0,VALID,23.7988,VALID,121,VALID,0.796875,
2011-04-21, 02:15:05,VALID,1000.24,VALID,0,VALID,91.2197,VALID,0,VALID,23.7988,VALID,117,VALID,1.03398,
2011-04-21, 02:16:05,VALID,1000.21,VALID,0,VALID,91.174,VALID,0,VALID,23.8183,VALID,117,VALID,0.875781,
2011-04-21, 02:17:05,VALID,1000.2,VALID,0,VALID,91.1206,VALID,0,VALID,23.8183,VALID,117,VALID,0.730859,
2011-04-21, 02:18:05,VALID,1000.18,VALID,0,VALID,91.0977,VALID,0,VALID,23.8183,VALID,117,VALID,0.916016,
2011-04-21, 02:19:05,VALID,1000.17,VALID,0,VALID,91.09,VALID,0,VALID,23.8183,VALID,117,VALID,0.695313,
2011-04-21, 02:20:05,VALID,1000.15,VALID,0,VALID,91.09,VALID,0,VALID,23.8183,VALID,117,VALID,0.417969,
2011-04-21, 02:21:05,VALID,1000.15,VALID,0,VALID,91.0671,VALID,0,VALID,23.7988,VALID,117,VALID,0.373828,
2011-04-21, 02:22:05,VALID,1000.12,VALID,0,VALID,91.0824,VALID,0,VALID,23.8183,VALID,117,VALID,0.0523437,
2011-04-21, 02:23:05,VALID,1000.13,VALID,0,VALID,91.1053,VALID,0,VALID,23.8183,VALID,117,VALID,0,
2011-04-21, 02:24:05,VALID,1000.1,VALID,0,VALID,91.1511,VALID,0,VALID,23.7988,VALID,117,VALID,0,
2011-04-21, 02:25:05,VALID,1000.09,VALID,0,VALID,91.1663,VALID,0,VALID,23.7988,VALID,117,VALID,0,
2011-04-21, 02:26:05,VALID,1000.09,VALID,0,VALID,91.2197,VALID,0,VALID,23.7793,VALID,117,VALID,0,
2011-04-21, 02:27:05,VALID,1000.13,VALID,0,VALID,91.2808,VALID,0,VALID,23.7793,VALID,117,VALID,0,
2011-04-21, 02:28:05,VALID,1000.18,VALID,0,VALID,91.3342,VALID,0,VALID,23.7793,VALID,117,VALID,0,
2011-04-21, 02:29:05,VALID,1000.21,VALID,0,VALID,91.3647,VALID,0,VALID,23.7793,VALID,117,VALID,0,
2011-04-21, 02:30:05,VALID,1000.19,VALID,0,VALID,91.4334,VALID,0,VALID,23.7793,VALID,117,VALID,0.395703,
2011-04-21, 02:31:05,VALID,1000.22,VALID,0,VALID,91.4791,VALID,0,VALID,23.7988,VALID,117,VALID,0.324609,
2011-04-21, 02:32:05,VALID,1000.22,VALID,0,VALID,91.502,VALID,0,VALID,23.7988,VALID,117,VALID,0.313672,
2011-04-21, 02:33:05,VALID,1000.22,VALID,0,VALID,91.5402,VALID,0,VALID,23.8183,VALID,117,VALID,0.3375,
2011-04-21, 02:34:05,VALID,1000.16,VALID,0,VALID,91.5554,VALID,0,VALID,23.7988,VALID,117,VALID,0.260156,
2011-04-21, 02:35:05,VALID,1000.15,VALID,0,VALID,91.5707,VALID,0,VALID,23.8183,VALID,117,VALID,0.210156,
2011-04-21, 02:36:05,VALID,1000.12,VALID,0,VALID,91.6317,VALID,0,VALID,23.8183,VALID,117,VALID,0.329297,
2011-04-21, 02:37:05,VALID,1000.12,VALID,0,VALID,91.6851,VALID,0,VALID,23.8378,VALID,117,VALID,0.411719,
2011-04-21, 02:38:05,VALID,1000.13,VALID,0,VALID,91.6851,VALID,0,VALID,23.8183,VALID,117,VALID,0.425,
2011-04-21, 02:39:05,VALID,1000.1,VALID,0,VALID,91.7157,VALID,0,VALID,23.8183,VALID,117,VALID,0.487109,
2011-04-21, 02:40:05,VALID,1000.1,VALID,0,VALID,91.7309,VALID,0,VALID,23.8183,VALID,117,VALID,0.573047,
2011-04-21, 02:41:05,VALID,1000.11,VALID,0,VALID,91.7385,VALID,0,VALID,23.8183,VALID,117,VALID,0.585156,
2011-04-21, 02:42:05,VALID,1000.08,VALID,0,VALID,91.708,VALID,0,VALID,23.8183,VALID,77,VALID,0.688281,
2011-04-21, 02:43:05,VALID,1000.07,VALID,0,VALID,91.708,VALID,0,VALID,23.8183,VALID,64,VALID,0.758594,
2011-04-21, 02:44:05,VALID,1000.05,VALID,0,VALID,91.6851,VALID,0,VALID,23.7988,VALID,63,VALID,0.733984,
2011-04-21, 02:45:05,VALID,1000.04,VALID,0,VALID,91.6699,VALID,0,VALID,23.7988,VALID,63,VALID,0.727734,
2011-04-21, 02:46:05,VALID,1000.05,VALID,0,VALID,91.6241,VALID,0,VALID,23.7775,VALID,63,VALID,0.761719,
2011-04-21, 02:47:05,VALID,1000.02,VALID,0,VALID,91.6165,VALID,0.112286,VALID,23.7793,VALID,63,VALID,0.604297,
2011-04-21, 02:48:05,VALID,1000.02,VALID,0,VALID,91.6623,VALID,0,VALID,23.7597,VALID,63,VALID,0.603125,
2011-04-21, 02:49:05,VALID,1000.02,VALID,0,VALID,91.6546,VALID,0.112286,VALID,23.7384,VALID,63,VALID,0.636719,
2011-04-21, 02:50:05,VALID,999.985,VALID,0,VALID,91.7309,VALID,0,VALID,23.7207,VALID,63,VALID,0.616406,
2011-04-21, 02:51:05,VALID,999.992,VALID,0,VALID,91.7767,VALID,0,VALID,23.7402,VALID,63,VALID,0.774609,
2011-04-21, 02:52:05,VALID,999.981,VALID,0,VALID,91.8377,VALID,0,VALID,23.7402,VALID,63,VALID,0.692187,
2011-04-21, 02:53:05,VALID,999.982,VALID,0,VALID,91.8911,VALID,0.112286,VALID,23.7207,VALID,63,VALID,0.708984,
2011-04-21, 02:54:05,VALID,999.994,VALID,0,VALID,91.9369,VALID,0,VALID,23.6994,VALID,63,VALID,0.445313,
2011-04-21, 02:55:05,VALID,999.998,VALID,0,VALID,91.9903,VALID,0.112286,VALID,23.7012,VALID,63,VALID,0.380859,
2011-04-21, 02:56:05,VALID,999.967,VALID,0,VALID,92.0209,VALID,0,VALID,23.6817,VALID,63,VALID,0.469141,
2011-04-21, 02:57:05,VALID,999.997,VALID,0,VALID,92.0361,VALID,0,VALID,23.6427,VALID,63,VALID,0.328516,
2011-04-21, 02:58:05,VALID,999.982,VALID,0,VALID,92.0437,VALID,0,VALID,23.6036,VALID,63,VALID,0.249219,
2011-04-21, 02:59:05,VALID,999.981,VALID,0,VALID,92.0743,VALID,0,VALID,23.5841,VALID,63,VALID,0.214844,
2011-04-21, 03:00:05,VALID,999.989,VALID,0,VALID,92.0895,VALID,0,VALID,23.5841,VALID,63,VALID,0,
2011-04-21, 03:01:05,VALID,999.933,VALID,0,VALID,92.1429,VALID,0,VALID,23.5841,VALID,63,VALID,0,
2011-04-21, 03:02:05,VALID,999.937,VALID,0,VALID,92.2116,VALID,0.112286,VALID,23.5646,VALID,63,VALID,0,
2011-04-21, 03:03:05,VALID,999.912,VALID,0,VALID,92.2574,VALID,0,VALID,23.5628,VALID,63,VALID,0,
2011-04-21, 03:04:05,VALID,999.863,VALID,0,VALID,92.3031,VALID,0,VALID,23.5841,VALID,58,VALID,0.682422,
2011-04-21, 03:05:05,VALID,999.835,VALID,0,VALID,92.3642,VALID,0,VALID,23.5841,VALID,56,VALID,0.814844,
2011-04-21, 03:06:05,VALID,999.828,VALID,0,VALID,92.4405,VALID,0,VALID,23.6036,VALID,56,VALID,0.651172,
2011-04-21, 03:07:04,VALID,999.862,VALID,0,VALID,92.4939,VALID,0,VALID,23.6019,VALID,56,VALID,0.733203,
2011-04-21, 03:08:04,VALID,999.832,VALID,0,VALID,92.5397,VALID,0,VALID,23.6019,VALID,56,VALID,0.703516,
2011-04-21, 03:09:04,VALID,999.826,VALID,0,VALID,92.5626,VALID,0,VALID,23.6019,VALID,64,VALID,0.686719,
2011-04-21, 03:10:04,VALID,999.836,VALID,0,VALID,92.5778,VALID,0,VALID,23.6232,VALID,67,VALID,0.702734,
2011-04-21, 03:11:04,VALID,999.826,VALID,0,VALID,92.6236,VALID,0,VALID,23.6232,VALID,74,VALID,0.723828,
2011-04-21, 03:12:04,VALID,999.847,VALID,0,VALID,92.6312,VALID,0,VALID,23.6214,VALID,75,VALID,0.650391,
2011-04-21, 03:13:04,VALID,999.856,VALID,0,VALID,92.677,VALID,0,VALID,23.6214,VALID,75,VALID,0.598828,
2011-04-21, 03:14:04,VALID,999.874,VALID,0,VALID,92.6923,VALID,0,VALID,23.6427,VALID,75,VALID,0.463281,
2011-04-21, 03:15:04,VALID,999.869,VALID,0,VALID,92.7075,VALID,0,VALID,23.6019,VALID,75,VALID,0.541406,
2011-04-21, 03:16:04,VALID,999.903,VALID,0,VALID,92.7304,VALID,0,VALID,23.6019,VALID,75,VALID,0.486719,
2011-04-21, 03:17:04,VALID,999.905,VALID,0,VALID,92.7228,VALID,0,VALID,23.5823,VALID,75,VALID,0.492188,
2011-04-21, 03:18:04,VALID,999.953,VALID,0,VALID,92.738,VALID,0,VALID,23.6036,VALID,75,VALID,0.445703,
2011-04-21, 03:19:04,VALID,999.973,VALID,0,VALID,92.7533,VALID,0,VALID,23.5628,VALID,75,VALID,0.395312,
2011-04-21, 03:20:04,VALID,999.981,VALID,0,VALID,92.7609,VALID,0,VALID,23.5841,VALID,75,VALID,0.386719,
2011-04-21, 03:21:04,VALID,999.957,VALID,0,VALID,92.7762,VALID,0,VALID,23.5628,VALID,75,VALID,0.332031,
2011-04-21, 03:22:04,VALID,999.995,VALID,0,VALID,92.7838,VALID,0,VALID,23.5841,VALID,77,VALID,0.472656,
2011-04-21, 03:23:04,VALID,999.966,VALID,0,VALID,92.7991,VALID,0.112286,VALID,23.5628,VALID,161,VALID,0.6875,
2011-04-21, 03:24:04,VALID,999.959,VALID,0,VALID,92.7991,VALID,0,VALID,23.5628,VALID,165,VALID,0.678516,
2011-04-21, 03:25:04,VALID,999.947,VALID,0,VALID,92.7838,VALID,0,VALID,23.5841,VALID,168,VALID,0.519141,
2011-04-21, 03:26:04,VALID,999.947,VALID,0,VALID,92.7914,VALID,0,VALID,23.6036,VALID,168,VALID,0.541406,
2011-04-21, 03:27:04,VALID,999.95,VALID,0,VALID,92.7838,VALID,0,VALID,23.5823,VALID,164,VALID,0.422656,
2011-04-21, 03:28:04,VALID,999.971,VALID,0,VALID,92.7762,VALID,0.112286,VALID,23.5823,VALID,163,VALID,0.374219,
2011-04-21, 03:29:04,VALID,999.95,VALID,0,VALID,92.7457,VALID,0,VALID,23.5841,VALID,153,VALID,0.494922,
2011-04-21, 03:30:04,VALID,999.999,VALID,0,VALID,92.7228,VALID,0,VALID,23.5823,VALID,137,VALID,0.508594,
2011-04-21, 03:31:04,VALID,999.975,VALID,0,VALID,92.6923,VALID,0,VALID,23.5841,VALID,137,VALID,0.365625,
2011-04-21, 03:32:04,VALID,1000,VALID,0,VALID,92.6694,VALID,0,VALID,23.5841,VALID,137,VALID,0.375391,
2011-04-21, 03:33:04,VALID,999.966,VALID,0,VALID,92.6236,VALID,0,VALID,23.6036,VALID,137,VALID,0.448438,
2011-04-21, 03:34:04,VALID,999.989,VALID,0,VALID,92.5854,VALID,0,VALID,23.6036,VALID,137,VALID,0.426562,
2011-04-21, 03:35:04,VALID,999.994,VALID,0,VALID,92.5397,VALID,0,VALID,23.5823,VALID,137,VALID,0.530859,
2011-04-21, 03:36:04,VALID,999.98,VALID,0,VALID,92.4939,VALID,0,VALID,23.6232,VALID,137,VALID,0.479297,
2011-04-21, 03:37:04,VALID,999.971,VALID,0,VALID,92.4557,VALID,0,VALID,23.6427,VALID,137,VALID,0.327734,
2011-04-21, 03:38:04,VALID,1000.02,VALID,0,VALID,92.3947,VALID,0,VALID,23.6622,VALID,137,VALID,0.491797,
2011-04-21, 03:39:04,VALID,999.938,VALID,0,VALID,92.3413,VALID,0,VALID,23.6817,VALID,137,VALID,0.347266,
2011-04-21, 03:40:04,VALID,999.973,VALID,0,VALID,92.2803,VALID,0,VALID,23.7012,VALID,137,VALID,0.498828,
2011-04-21, 03:41:04,VALID,999.973,VALID,0,VALID,92.1963,VALID,0,VALID,23.7012,VALID,143,VALID,0.680469,
2011-04-21, 03:42:04,VALID,1000,VALID,0,VALID,92.0895,VALID,0,VALID,23.7207,VALID,143,VALID,0.587891,
2011-04-21, 03:43:04,VALID,999.997,VALID,0,VALID,91.9674,VALID,0,VALID,23.7402,VALID,139,VALID,0.599219,
2011-04-21, 03:44:04,VALID,1000,VALID,0,VALID,91.8606,VALID,0,VALID,23.7402,VALID,138,VALID,0.875781,
2011-04-21, 03:45:04,VALID,1000.02,VALID,0,VALID,91.6775,VALID,0,VALID,23.7402,VALID,138,VALID,0.935156,
2011-04-21, 03:46:04,VALID,1000.04,VALID,0,VALID,91.5173,VALID,0,VALID,23.7402,VALID,138,VALID,0.945313,
2011-04-21, 03:47:04,VALID,1000.03,VALID,0,VALID,91.3952,VALID,0,VALID,23.7597,VALID,138,VALID,0.859766,
2011-04-21, 03:48:04,VALID,1000.06,VALID,0,VALID,91.2426,VALID,0,VALID,23.7793,VALID,138,VALID,0.705078,